www.pogodaiklimat.ru

Погода и климат >> Архив погоды >> Иран >> Khark


ПОГОДА в Khark

  • Прогноз погоды в Khark
  • Монитор погоды в Khark
  • Климат города

АРХИВ ПОГОДЫ в Khark

Время (UTC), дата Ветер
(напр.,м/с)
 
Видим.   Явления Облачность Т
(С)
Тd
(С)
f
(%)
Тe
(С)
Тes
(С)
Комфортность P
(гПа)
Po
(гПа)
Тmin
(С)
Tmax
(С)
R
(мм)
R24
(мм)
S
(см)
03 12.11 С 4 10 км 6/3 1200 м
[Sc Ac As]
+23.5 +18.6 74 +28 +28 душно 1017.1 1016.6 +21.6
06 12.11 СЗ 4 10 км 6/3 1200 м
[Sc Ac As]
+24.2 +20.2 78 +30 +31 очень
душно
1018.7 1018.2
09 12.11 СЗ 6 10 км ясно +24.8 +21.5 82 +32 +35 очень
душно
1017.5 1017.0
15 12.11 СЗ 7 10 км ясно +24.1 +19.1 74 +29 +29 душно 1016.6 1016.1 +25.3
03 13.11 СЗ 7 10 км 1/0
[Ci fib]
+22.2 +17.2 73 +27 +27 душно 1017.1 1016.6 +22.0
06 13.11 СЗ 7 10 км ясно +23.1 +18.2 74 +29 +30 очень
душно
1017.8 1017.3
09 13.11 СЗ 7 10 км ясно +23.7 +18.6 73 +28 +31 душно 1016.7 1016.2
12 13.11 СЗ 6 10 км ясно +23.9 +18.2 70 +28 +29 душно 1015.4 1014.9
15 13.11 СЗ 7 10 км ясно +23.6 +15.7 61 +27 +27 жарко 1015.7 1015.2 +24.0
03 14.11 З 3 10 км 10/5 900 м
[Cb calv As op]
+22.7 +15.1 62 +27 +27 душно 1014.8 1014.3 +22.2
06 14.11 В 2 10 км 10/3 1200 м
[Sc As trans]
+23.8 +14.2 55 +26 +28 жарко 1015.6 1015.1
09 14.11 В 2 10 км 10/3 1200 м
[Sc As op]
+23.4 +13.5 54 +27 +28 душно 1013.7 1013.2
12 14.11 СВ 4 10 км слабый дождь 10/8 900 м
[Cb calv As op]
+21.0 +16.7 76 +25 +25 комфорт 1013.6 1013.1 2
15 14.11 С 7 10 км 10/8 900 м
[Cb calv As op]
+20.8 +17.3 80 +24 +24 комфорт 1015.2 1014.7 +23.8
03 15.11 СВ 11 10 км 10/5 900 м
[Cb calv As op]
+21.9 +17.3 75 +26 +26 душно 1015.6 1015.1 +19.5
06 15.11 С 11 10 км 10/5 900 м
[Cb calv As op]
+21.2 +18.3 84 +25 +25 комфорт 1017.5 1017.0 9
09 15.11 СВ 7 10 км 10/5 900 м
[Cb calv As op]
+22.4 +18.5 79 +28 +28 душно 1015.7 1015.2
12 15.11 С 9 10 км в посл. час дождь 10/6 900 м
[Cb calv As op]
+23.5 +18.8 75 +28 +28 душно 1013.5 1013.0 1
15 15.11 СВ 7 10 км 10/4 1200 м
[Sc diur, vesp As op]
+24.6 +19.5 73 +30 +30 очень
душно
1013.4 1012.9 +24.8
03 16.11 СЗ 11 6000 м зарница 10/8 750 м
[Cb calv As op]
+22.4 +20.2 87 +29 +29 очень
душно
1015.8 1015.3 +22.0
06 16.11 штиль 0 10 км 8/4 1200 м
[Sc Ac As]
+22.6 +21.8 95 +30 +32 очень
душно
1017.7 1017.2 21
09 16.11 СВ 7 10 км 10/3 1200 м
[Sc As op]
+23.7 +20.0 80 +29 +30 душно 1017.1 1016.6
12 16.11 В 4 10 км 6/3 1200 м
[Cu hum Ac As]
+23.7 +20.4 82 +29 +30 душно 1016.9 1016.4
15 16.11 С 3 10 км 4/0
[Ac As]
+24.1 +20.8 82 +30 +30 очень
душно
1017.5 1017.0 +24.7
03 17.11 СЗ 9 10 км ясно +23.7 +20.4 82 +29 +29 душно 1019.0 1018.5 +20.9
06 17.11 З 8 10 км ясно +24.4 +21.7 85 +31 +32 очень
душно
1020.5 1020.0
09 17.11 СЗ 8 10 км ясно +24.2 +21.3 84 +31 +32 очень
душно
1019.0 1018.5
12 17.11 СЗ 8 10 км 3/3 1200 м
[Cu hum]
+24.1 +21.1 83 +30 +31 очень
душно
1017.9 1017.4
15 17.11 СЗ 9 10 км 3/3 1200 м
[Cu med, cong]
+23.6 +20.5 83 +29 +29 душно 1018.9 1018.4 +24.6
03 18.11 З 8 10 км 5/5 1200 м
[Sc]
+21.4 +19.2 87 +26 +26 душно 1018.7 1018.2 +21.3
06 18.11 СЗ 7 10 км 4/4 1200 м
[Sc]
+21.8 +18.9 84 +27 +28 душно 1019.9 1019.4
09 18.11 СЗ 7 10 км 3/3 1200 м
[Cu hum]
+22.0 +18.9 83 +27 +29 душно 1018.2 1017.7
12 18.11 СЗ 8 10 км ясно +22.5 +18.9 80 +28 +29 душно 1017.0 1016.5
15 18.11 СВ 8 10 км ясно +22.2 +18.7 81 +28 +28 душно 1016.9 1016.4 +22.7

 

Местоположение метеостанции Khark (Иран): широта 29.26 долгота 50.32 высота над уровнем моря 3 м.

В архиве по умолчанию представлена погода в Khark за последнюю неделю. Архивные данные за месяц целиком и за предыдущие месяцы, начиная с января 2011 года, Вы можете получить, выбрав интересующий диапазон дат из раскрывающегося списка и нажав кнопку "Ввод!".


*Определитесь, кто Вы:
робот инопланетянин человек

Внимание! Время в таблицах - всемирное. Для получения местного времени необходимо прибавить поправку, которая в Khark равна 3.5 ч.

Смотрите также архив погоды в соседних городах и на ближайших метеорологических станциях:

Погода в Bushehr Airport (Иран) (59 км)
Погода в Bushehr (Иран) (62 км)
Погода в Gach Saran (Иран) (137 км)
Погода в Nuwasib (Кувейт) (175 км)
Погода в Umm-Al-Maradim (Кувейт) (175 км)
Погода в Omidieh (Иран) (179 км)
Погода в Fao (Ирак) (193 км)
Погода в Bubiyan (Кувейт) (196 км)
Погода в Yasuj (Иран) (198 км)
Погода в Failaka Island (Кувейт) (199 км)

Пояснения к столбцам:

Ветер - указаны скорость ветра в м/с - средняя за 10 мин, порывы в срок и между сроками (в фигурных скобках) и направление, откуда дует ветер: С - северный, СВ - северо-восточный, В - восточный, ЮВ - юго-восточный, Ю - южный, ЮЗ - юго-западный, З - западный, СЗ - северо-западный.
Видимость - горизонтальная дальность видимости в метрах или километрах. При видимости от 1 до 10 км при отсутствии осадков обычно наблюдается дымка, при ухудшении видимости до 1 км и менее - туман. В сухую погоду видимость может ухудшаться дымом, пылью или мглою.
Явления - указаны атмосферные явления, наблюдавшиеся в срок или в последний час перед сроком; фигурными скобками обозначены явления, наблюдавшиеся между сроками (за 1-3 часа до срока); квадратными скобками обозначены град или гололедные отложения с указанием их диаметра в мм.
Облачность - указаны через наклонную черту общая и нижняя облачность в баллах и высота нижней границы облаков в метрах; квадратными скобками обозначены формы облаков: Ci - перистые, Cs - перисто-слоистые, Cc - перисто-кучевые, Ac - высококучевые, As - высокослоистые, Sc - слоисто-кучевые, Ns - слоисто-дождевые, Cu - кучевые, Cb - кучево-дождевые. Подробнее классификацию облаков см. в Атласе облаков (PDF).
T - Температура воздуха - температура, измеренная на высоте 2 м над землей.
Td - Температура точки росы - температура, при понижении до которой содержащийся в воздухе водяной пар достигнет насыщения.
f - Относительная влажность воздуха - влажноcть воздуха, измеренная на высоте 2 м над землей.
Te - Эффективная температура - температура, которую ощущает одетый по сезону человек в тени. Характеристика душности погоды. При расчете учитывается влияние влажности воздуха и скорости ветра на теплоощущения человека.
Tes - Эффективная температура на солнце - температура, которую ощущает человек, с поправкой на солнечный нагрев. Характеристика знойности погоды. Зависит от высоты солнца над горизонтом, облачности и скорости ветра. Ночью, в пасмурную погоду, а также при ветре 12 м/с и более поправка равна нулю.
P - Атмосферное давление - приведенное к уровню моря атмосферное давление.
Po - Атмосферное давление - измеренное на уровне метеостанции атмосферное давление.
Tmin - Минимальная температура - минимум температуры воздуха на высоте 2 м над землей.
Tmax - Максимальная температура - максимум температуры воздуха на высоте 2 м над землей.
R - Количество осадков - Количество выпавших осадков за период времени, мм. При наведении курсора мыши на число - период времени, за который выпало указанное количество осадков.
R24 - Количество осадков - Количество выпавших осадков за 24 часа, мм.
S - Снежный покров - Высота снежного покрова, см. При наведении курсора мыши на число - состояние снежного покрова и степень покрытия местности в баллах.